{"data":{"norad_id":51950,"epoch":"2026-09-20T21:47:29.931648Z","epoch_age_seconds":83507,"freshness":"FRESH","line1":"1 51950U 22023E   26263.90798532 -.00000070  00000+0  29394-4 0  9999","line2":"2 51950  63.4598  63.3577 0167959 348.5159  11.2061 13.56298765235014","mean_motion":13.56298765,"eccentricity":0.0167959,"inclination_deg":63.4598,"raan_deg":63.3577,"arg_perigee_deg":348.5159,"mean_anomaly_deg":11.2061,"bstar":2.9394e-5,"rev_number":23501,"period_min":106.17129773763,"perigee_km":924.42542263074,"apogee_km":1173.9221612921,"semimajor_km":7427.3107919614,"source":"CELESTRAK","updated_at":"2026-09-21T09:00:08.416027Z"}}